World > North America > United States > Florida

Fort Myers, Florida Regional Weather

Lat: 26.63N, Lon: 81.85W
Wx Zone: FLZ165 Web Search

Helpful Tip: Abbreviated, 7 Day, 14 Day Forecasts. There is a weather forecast for every taste.

Feedback

Fort Myers, FL Regional Weather

Expires:202008071800;;080762
ASUS42 KTBW 071719
RWRFL 
FLORIDA REGIONAL WEATHER ROUNDUP
NATIONAL WEATHER SERVICE TAMPA BAY RUSKIN FL
100 PM EDT FRI AUG 07 2020

NOTE: "FAIR" INDICATES FEW OR NO CLOUDS BELOW 12,000 FEET WITH NO
SIGNIFICANT WEATHER AND/OR OBSTRUCTIONS TO VISIBILITY.


FLZ066-069-070-075>078-162-262-165-265-071800-
SOUTHWEST FLORIDA AND KEYS
  
CITY           SKY/WX    TMP DP  RH WIND       PRES   REMARKS
PUNTA GORDA    PTSUNNY   90  75  61 CALM      30.10F HX 100           
FT MYERS       CLOUDY    91  75  59 NE5       30.08F HX 101           
SOUTHWEST INTL PTSUNNY   91  76  61 CALM      30.09F HX 103           
NAPLES         PTSUNNY   90  77  65 W8        30.09S HX 103           
MARCO ISLAND   MOSUNNY   93  75  55 E7        30.10R HX 104           
IMMOKALEE      FAIR      93  75  55 CALM      30.09S HX 104           
MARATHON       SUNNY     91  79  67 SE8       30.08R HX 107           
KEY WEST NAS   MOSUNNY   93  78  61 SE10      30.08S HX 108           
KEY WEST INTL  MOSUNNY   91  77  63 E10       30.08S HX 104           

STATION/POSITION SKY/WX   TEMP    WIND        PRES    WAVE   SWELL
                          AIR SEA DIR/SP/G            HT/PER HT/PER
                          (F)     (DEG/KT/KT) (MB)    (FT/S) (FT/S)
NAPLES                     89 89  290/  3/  6 1019.8
26.0N   85.6W                 85              1019.8S   2/ 5   2/ 5
DRY TORTUGAS     NOT AVBL
SAND KEY                   85     110/  9/ 11 1019.0F
SOMBRERO KEY               85     100/  7/  9   N/A
LONG KEY                   85      90/  9/ 13 1018.0F

$$

SKY/WX - Weather  TMP - Temperature  DP - Dew Point  RH - Relative Humidity
WIND - Wind Direction/Speed PRES - Barometric Pressure VSB - Visibility
WCI - Wind Chill Index E13G22 Wind - East Wind 13 mph/Gusts of 22 mph
Fort Myers Weather Map
UTC Time: 8/7/2020, 18:04
Your Time: